Estación Meteorológica Peña el Pijo (Robertgarden) [ 09/29/20 12:24:34 CEST ]

Fecha Hora Presion(HPa) Temp (°C) Humedad % Rocio (°C) Viento ( m/s) Direccion Lluvia 1Hora(mm) Lluvia 24H(mm) LLuvia Total(mm)
2020-Feb-02 01:09:18 1018.200 - - - - N     39.88
2020-Feb-02 02:11:13 1017.900 - - - - N     39.88
2020-Feb-02 03:10:01 1018.200 - - - - N     39.88
2020-Feb-02 04:14:12 1017.900 - - - - N     39.88
2020-Feb-02 05:10:18 1017.700 - - - - N     39.88
2020-Feb-02 06:10:15 1017.400 - - - - N     39.88
2020-Feb-02 07:09:04 1017.600 - - - - N     39.88
2020-Feb-02 08:08:34 1018.100 - - - - N     39.88
2020-Feb-02 09:09:00 1019.300 - - - - N     39.88
2020-Feb-02 10:09:05 1019.800 - - - - N     39.88
2020-Feb-02 11:09:11 1019.900 - - - - N     39.88
2020-Feb-02 12:09:29 1019.600 - - - - N     39.88
2020-Feb-02 13:09:32 1019.000 - - - - N     39.88
2020-Feb-02 14:09:24 1018.000 - - - - N     39.88
2020-Feb-02 15:09:24 1017.500 - - - - N     39.88
2020-Feb-02 16:09:14 1017.600 - - - - N     39.88
2020-Feb-02 17:09:15 1017.700 - - - - N     39.88
2020-Feb-02 18:09:34 1018.300 - - - - N     39.88
2020-Feb-02 19:09:10 1019.000 - - - - N     39.88
2020-Feb-02 20:09:11 1019.500 - - - - N     39.88
2020-Feb-02 21:09:16 1020.100 - - - - N     39.88
2020-Feb-02 22:09:26 1020.600 - - - - N     39.88
2020-Feb-02 23:09:05 1020.800 - - - - N     39.88

Temperatura Máxima:    Temperatura Mínima:
Presión Máxima:1020.800 Hpa    Presión Mínima:1017.400 Hpa


Volver